| time (UTC) | temp F | wind direction | speed knots | gust knots | rain 1hr in | rain 24hr in | rain mn in | humidity % | barometer mb |
| 20260505160802 | 82 | 355 | 0.0 | 0.9 | 0.00 | 0.28 | 0.28 | 87 | 1009.6 |
| 20260505160300 | 82 | 338 | 0.9 | 0.9 | 0.00 | 0.28 | 0.28 | 87 | 1009.7 |
| 20260505153238 | 82 | 335 | 0.9 | 0.9 | 0.00 | 0.28 | 0.28 | 87 | 1009.7 |
| 20260505152735 | 82 | 353 | 0.9 | 1.7 | 0.00 | 0.28 | 0.28 | 87 | 1009.7 |
| 20260505152231 | 82 | 0 | 0.0 | 0.0 | 0.00 | 0.28 | 0.28 | 87 | 1009.6 |
| 20260505151726 | 81 | 15 | 0.0 | 0.9 | 0.00 | 0.28 | 0.28 | 87 | 1009.8 |
| 20260505151224 | 81 | 7 | 0.0 | 0.9 | 0.00 | 0.28 | 0.28 | 88 | 1009.9 |
| 20260505150720 | 81 | 9 | 0.0 | 0.9 | 0.00 | 0.28 | 0.28 | 88 | 1009.8 |
| 20260505150217 | 81 | 11 | 0.0 | 0.9 | 0.00 | 0.28 | 0.28 | 88 | 1009.9 |
| 20260505140645 | 81 | 11 | 0.0 | 0.9 | 0.00 | 0.28 | 0.28 | 88 | 1010.0 |
| 20260505140142 | 81 | 11 | 0.0 | 0.9 | 0.00 | 0.28 | 0.28 | 88 | 1010.0 |
| 20260505130106 | 78 | 283 | 1.7 | 1.7 | 0.00 | 0.28 | 0.28 | 90 | 1009.8 |
| 20260505124555 | 78 | 304 | 0.9 | 5.2 | 0.00 | 0.28 | 0.28 | 90 | 1009.7 |
| 20260505124052 | 78 | 304 | 0.9 | 5.2 | 0.00 | 0.28 | 0.28 | 90 | 1009.7 |
| 20260505123548 | 78 | 282 | 2.6 | 5.2 | 0.00 | 0.28 | 0.28 | 90 | 1009.7 |
| 20260505123045 | 77 | 275 | 2.6 | 3.5 | 0.00 | 0.28 | 0.28 | 91 | 1009.5 |
| 20260505122542 | 77 | 321 | 1.7 | 5.2 | 0.00 | 0.28 | 0.28 | 91 | 1009.8 |
| 20260505122038 | 77 | 331 | 3.5 | 3.5 | 0.00 | 0.28 | 0.28 | 91 | 1009.7 |
| 20260505121534 | 77 | 274 | 6.1 | 11.3 | 0.00 | 0.28 | 0.28 | 91 | 1009.6 |
| 20260505121031 | 77 | 289 | 3.5 | 7.0 | 0.07 | 0.28 | 0.28 | 91 | 1009.6 |
| 20260505120529 | 77 | 321 | 7.0 | 8.7 | 0.07 | 0.28 | 0.28 | 91 | 1009.3 |
| 20260505120024 | 77 | 324 | 7.8 | 11.3 | 0.00 | 0.27 | 0.27 | 91 | 1009.1 |
| 20260505115519 | 78 | 333 | 10.4 | 13.0 | 0.00 | 0.27 | 0.27 | 91 | 1009.1 |
| 20260505115017 | 78 | 307 | 7.0 | 12.2 | 0.00 | 0.27 | 0.27 | 91 | 1009.5 |
| 20260505114513 | 79 | 344 | 12.2 | 18.2 | 0.00 | 0.27 | 0.27 | 91 | 1009.3 |
| 20260505114010 | 79 | 326 | 9.6 | 12.2 | 0.00 | 0.27 | 0.27 | 91 | 1009.1 |
| 20260505113506 | 79 | 8 | 1.7 | 5.2 | 0.47 | 0.27 | 0.27 | 91 | 1008.8 |
| 20260505113003 | 78 | 359 | 7.0 | 12.2 | 0.52 | 0.27 | 0.27 | 91 | 1009.0 |
| 20260505112459 | 80 | 16 | 5.2 | 7.0 | 0.00 | 0.18 | 0.18 | 91 | 1008.9 |
| 20260505111956 | 80 | 335 | 1.7 | 5.2 | 0.00 | 0.18 | 0.18 | 91 | 1008.0 |
| 20260505111455 | 79 | 317 | 3.5 | 7.0 | 0.07 | 0.18 | 0.18 | 90 | 1007.9 |
| 20260505110952 | 80 | 287 | 6.1 | 7.8 | 0.78 | 0.18 | 0.18 | 90 | 1008.2 |
| 20260505110449 | 80 | 17 | 8.7 | 11.3 | 0.83 | 0.16 | 0.16 | 89 | 1008.2 |
| 20260505101920 | 88 | 163 | 7.0 | 19.1 | 0.00 | 0.00 | 0.00 | 74 | 1006.8 |
| 20260505101415 | 89 | 156 | 9.6 | 12.2 | 0.00 | 0.00 | 0.00 | 72 | 1006.9 |
| 20260505100911 | 89 | 162 | 7.0 | 11.3 | 0.00 | 0.00 | 0.00 | 73 | 1006.7 |
| 20260505100408 | 89 | 119 | 12.2 | 13.9 | 0.00 | 0.00 | 0.00 | 73 | 1006.6 |
| 20260505095903 | 89 | 129 | 12.2 | 15.6 | 0.00 | 0.00 | 0.00 | 72 | 1006.7 |
| 20260505095401 | 89 | 155 | 7.0 | 12.2 | 0.00 | 0.00 | 0.00 | 72 | 1006.7 |
| 20260505094857 | 90 | 155 | 14.8 | 18.2 | 0.00 | 0.00 | 0.00 | 71 | 1006.3 |
| 20260505094354 | 90 | 137 | 5.2 | 11.3 | 0.00 | 0.00 | 0.00 | 70 | 1006.5 |
| 20260505093850 | 90 | 157 | 5.2 | 11.3 | 0.00 | 0.00 | 0.00 | 70 | 1006.3 |
| 20260505093347 | 91 | 128 | 14.8 | 16.5 | 0.00 | 0.00 | 0.00 | 69 | 1006.1 |
| 20260505092844 | 91 | 175 | 9.6 | 13.9 | 0.00 | 0.00 | 0.00 | 69 | 1006.2 |
| 20260505092343 | 91 | 152 | 9.6 | 13.0 | 0.00 | 0.00 | 0.00 | 68 | 1006.1 |
| 20260505091839 | 91 | 65 | 1.7 | 14.8 | 0.00 | 0.00 | 0.00 | 68 | 1006.0 |
| 20260505091338 | 92 | 213 | 11.3 | 14.8 | 0.00 | 0.00 | 0.00 | 67 | 1006.0 |
| 20260505090835 | 92 | 52 | 7.0 | 12.2 | 0.00 | 0.00 | 0.00 | 67 | 1006.1 |
| 20260505090333 | 92 | 173 | 7.0 | 12.2 | 0.00 | 0.00 | 0.00 | 66 | 1006.2 |
| 20260505085830 | 93 | 123 | 5.2 | 9.6 | 0.00 | 0.00 | 0.00 | 66 | 1006.2 |
| 20260505085328 | 92 | 168 | 4.3 | 12.2 | 0.00 | 0.00 | 0.00 | 67 | 1006.0 |
| 20260505084826 | 93 | 109 | 7.8 | 9.6 | 0.00 | 0.00 | 0.00 | 65 | 1006.0 |
| 20260505084324 | 93 | 164 | 4.3 | 12.2 | 0.00 | 0.00 | 0.00 | 65 | 1005.8 |
| 20260505083821 | 93 | 124 | 5.2 | 11.3 | 0.00 | 0.00 | 0.00 | 65 | 1006.0 |
| 20260505083318 | 92 | 77 | 6.1 | 11.3 | 0.00 | 0.00 | 0.00 | 66 | 1006.0 |
| 20260505082814 | 93 | 148 | 7.8 | 12.2 | 0.00 | 0.00 | 0.00 | 64 | 1006.1 |
| 20260505082311 | 92 | 118 | 8.7 | 12.2 | 0.00 | 0.00 | 0.00 | 65 | 1005.9 |
| 20260505081808 | 93 | 129 | 7.0 | 12.2 | 0.00 | 0.00 | 0.00 | 64 | 1005.9 |
| 20260505081304 | 93 | 119 | 5.2 | 11.3 | 0.00 | 0.00 | 0.00 | 64 | 1006.1 |
| 20260505080801 | 93 | 141 | 6.1 | 12.2 | 0.00 | 0.00 | 0.00 | 64 | 1005.9 |
| 20260505080257 | 93 | 133 | 7.0 | 13.0 | 0.00 | 0.00 | 0.00 | 65 | 1006.2 |
| 20260505075752 | 93 | 134 | 9.6 | 12.2 | 0.00 | 0.00 | 0.00 | 64 | 1006.2 |
| 20260505075250 | 92 | 137 | 10.4 | 13.0 | 0.00 | 0.00 | 0.00 | 65 | 1006.2 |
| 20260505074747 | 93 | 168 | 7.8 | 13.0 | 0.00 | 0.00 | 0.00 | 65 | 1006.3 |
| 20260505074244 | 94 | 123 | 8.7 | 13.0 | 0.00 | 0.00 | 0.00 | 63 | 1006.4 |
| 20260505073742 | 93 | 212 | 4.3 | 6.1 | 0.00 | 0.00 | 0.00 | 64 | 1006.4 |
| 20260505073239 | 92 | 178 | 2.6 | 7.8 | 0.00 | 0.00 | 0.00 | 64 | 1006.3 |
| 20260505072736 | 91 | 154 | 4.3 | 7.8 | 0.00 | 0.00 | 0.00 | 65 | 1006.4 |
| 20260505072232 | 90 | 184 | 5.2 | 7.0 | 0.00 | 0.00 | 0.00 | 66 | 1006.7 |
| 20260505071727 | 90 | 153 | 6.1 | 9.6 | 0.00 | 0.00 | 0.00 | 68 | 1006.8 |
| 20260505071225 | 89 | 121 | 7.0 | 8.7 | 0.00 | 0.00 | 0.00 | 69 | 1007.0 |
| 20260505070722 | 89 | 196 | 5.2 | 8.7 | 0.00 | 0.00 | 0.00 | 69 | 1006.9 |
| 20260505070218 | 90 | 119 | 9.6 | 13.9 | 0.00 | 0.00 | 0.00 | 70 | 1007.0 |
| 20260505065714 | 91 | 130 | 7.8 | 13.0 | 0.00 | 0.00 | 0.00 | 69 | 1007.3 |
| 20260505065210 | 92 | 128 | 4.3 | 8.7 | 0.00 | 0.00 | 0.00 | 67 | 1007.2 |
| 20260505064708 | 93 | 79 | 0.9 | 7.0 | 0.00 | 0.00 | 0.00 | 61 | 1007.3 |
| 20260505064206 | 94 | 90 | 3.5 | 5.2 | 0.00 | 0.00 | 0.00 | 60 | 1007.5 |
| 20260505063702 | 95 | 93 | 4.3 | 7.0 | 0.00 | 0.00 | 0.00 | 59 | 1007.4 |
| 20260505063159 | 94 | 42 | 1.7 | 6.1 | 0.00 | 0.00 | 0.00 | 59 | 1007.6 |
| 20260505062655 | 94 | 69 | 1.7 | 2.6 | 0.00 | 0.00 | 0.00 | 59 | 1007.7 |
| 20260505062153 | 94 | 65 | 1.7 | 1.7 | 0.00 | 0.00 | 0.00 | 59 | 1007.9 |
| 20260505061650 | 93 | 351 | 1.7 | 7.0 | 0.00 | 0.00 | 0.00 | 60 | 1007.9 |
| 20260505061148 | 94 | 21 | 3.5 | 3.5 | 0.00 | 0.00 | 0.00 | 59 | 1008.0 |
| 20260505060645 | 94 | 46 | 2.6 | 2.6 | 0.00 | 0.00 | 0.00 | 60 | 1008.1 |
| 20260505060142 | 95 | 324 | 2.6 | 3.5 | 0.00 | 0.00 | 0.00 | 59 | 1008.1 |
| 20260505055637 | 95 | 249 | 0.9 | 1.7 | 0.00 | 0.00 | 0.00 | 59 | 1008.3 |
| 20260505055134 | 95 | 356 | 1.7 | 2.6 | 0.00 | 0.00 | 0.00 | 60 | 1008.4 |
| 20260505054631 | 95 | 91 | 3.5 | 3.5 | 0.00 | 0.00 | 0.00 | 59 | 1008.4 |
| 20260505054129 | 94 | 119 | 1.7 | 7.0 | 0.00 | 0.00 | 0.00 | 61 | 1008.4 |
| 20260505053626 | 94 | 84 | 7.0 | 11.3 | 0.00 | 0.00 | 0.00 | 60 | 1008.6 |
| 20260505053122 | 95 | 131 | 3.5 | 8.7 | 0.00 | 0.00 | 0.00 | 60 | 1008.6 |
| 20260505052619 | 94 | 7 | 5.2 | 7.0 | 0.00 | 0.00 | 0.00 | 60 | 1008.6 |
| 20260505052117 | 94 | 106 | 1.7 | 7.8 | 0.00 | 0.00 | 0.00 | 60 | 1008.8 |
| 20260505051614 | 94 | 65 | 1.7 | 3.5 | 0.00 | 0.00 | 0.00 | 61 | 1009.0 |
| 20260505051112 | 94 | 100 | 2.6 | 7.8 | 0.00 | 0.00 | 0.00 | 60 | 1009.0 |
| 20260505050609 | 94 | 65 | 1.7 | 2.6 | 0.00 | 0.00 | 0.00 | 60 | 1009.0 |
| 20260505050108 | 93 | 62 | 1.7 | 7.0 | 0.00 | 0.00 | 0.00 | 61 | 1009.1 |
| 20260505041537 | 93 | 47 | 9.6 | 13.9 | 0.00 | 0.00 | 0.00 | 62 | 1009.8 |
| 20260505041035 | 93 | 40 | 1.7 | 6.1 | 0.00 | 0.00 | 0.00 | 62 | 1010.1 |
| 20260505040532 | 93 | 60 | 2.6 | 5.2 | 0.00 | 0.00 | 0.00 | 62 | 1009.9 |
| 20260505040029 | 92 | 64 | 7.8 | 8.7 | 0.00 | 0.00 | 0.00 | 64 | 1010.1 |
| 20260505035525 | 91 | 29 | 0.9 | 5.2 | 0.00 | 0.00 | 0.00 | 64 | 1010.1 |
| 20260505035022 | 91 | 52 | 5.2 | 7.0 | 0.00 | 0.00 | 0.00 | 64 | 1010.4 |
| 20260505034518 | 92 | 79 | 6.1 | 7.8 | 0.00 | 0.00 | 0.00 | 63 | 1010.3 |
| 20260505034015 | 91 | 18 | 0.0 | 5.2 | 0.00 | 0.00 | 0.00 | 64 | 1010.3 |
| 20260505033512 | 93 | 45 | 2.6 | 3.5 | 0.00 | 0.00 | 0.00 | 63 | 1010.4 |
| 20260505033010 | 92 | 353 | 1.7 | 5.2 | 0.00 | 0.00 | 0.00 | 63 | 1010.4 |
| 20260505032508 | 94 | 303 | 4.3 | 5.2 | 0.00 | 0.00 | 0.00 | 61 | 1010.5 |
| 20260505032004 | 93 | 350 | 1.7 | 6.1 | 0.00 | 0.00 | 0.00 | 61 | 1010.6 |
| 20260505031501 | 93 | 38 | 0.9 | 5.2 | 0.00 | 0.00 | 0.00 | 63 | 1010.7 |
| 20260505030958 | 91 | 34 | 2.6 | 5.2 | 0.00 | 0.00 | 0.00 | 65 | 1010.7 |
| 20260505030454 | 92 | 5 | 4.3 | 7.0 | 0.00 | 0.00 | 0.00 | 63 | 1010.7 |
| 20260505025949 | 91 | 81 | 3.5 | 6.1 | 0.00 | 0.00 | 0.00 | 65 | 1010.7 |
| 20260505025447 | 91 | 44 | 4.3 | 7.0 | 0.00 | 0.00 | 0.00 | 65 | 1010.8 |
| 20260505024946 | 91 | 109 | 1.7 | 6.1 | 0.00 | 0.00 | 0.00 | 66 | 1010.4 |
| 20260505024442 | 90 | 65 | 0.9 | 3.5 | 0.00 | 0.00 | 0.00 | 66 | 1010.6 |
| 20260505023939 | 91 | 31 | 3.5 | 3.5 | 0.00 | 0.00 | 0.00 | 67 | 1010.7 |
| 20260505023436 | 90 | 58 | 0.9 | 9.6 | 0.00 | 0.00 | 0.00 | 69 | 1010.7 |
| 20260505022933 | 91 | 155 | 6.1 | 8.7 | 0.00 | 0.00 | 0.00 | 67 | 1010.6 |
| 20260505022431 | 90 | 60 | 3.5 | 6.1 | 0.00 | 0.00 | 0.00 | 67 | 1010.6 |
| 20260505021928 | 89 | 36 | 1.7 | 5.2 | 0.00 | 0.00 | 0.00 | 68 | 1010.9 |
| 20260505021425 | 90 | 110 | 3.5 | 7.0 | 0.00 | 0.00 | 0.00 | 69 | 1010.7 |
| 20260505020920 | 89 | 96 | 2.6 | 7.8 | 0.00 | 0.00 | 0.00 | 69 | 1010.7 |
| 20260505020416 | 89 | 83 | 4.3 | 7.8 | 0.00 | 0.00 | 0.00 | 70 | 1010.5 |
| 20260505015913 | 89 | 35 | 1.7 | 7.8 | 0.00 | 0.00 | 0.00 | 71 | 1010.7 |
| 20260505015410 | 89 | 106 | 7.0 | 8.7 | 0.00 | 0.00 | 0.00 | 69 | 1010.7 |
| 20260505014907 | 88 | 28 | 5.2 | 7.0 | 0.00 | 0.00 | 0.00 | 72 | 1010.6 |
| 20260505014404 | 88 | 68 | 6.1 | 7.8 | 0.00 | 0.00 | 0.00 | 71 | 1010.6 |
| 20260505013901 | 89 | 141 | 5.2 | 9.6 | 0.00 | 0.00 | 0.00 | 71 | 1010.7 |
| 20260505013358 | 89 | 30 | 1.7 | 3.5 | 0.00 | 0.00 | 0.00 | 71 | 1010.8 |
| 20260505012856 | 88 | 102 | 3.5 | 8.7 | 0.00 | 0.00 | 0.00 | 72 | 1010.8 |
| 20260505012354 | 87 | 77 | 3.5 | 7.0 | 0.00 | 0.00 | 0.00 | 73 | 1010.9 |
| 20260505011850 | 88 | 44 | 4.3 | 7.0 | 0.00 | 0.00 | 0.00 | 72 | 1010.9 |
| 20260505011347 | 87 | 27 | 7.0 | 9.6 | 0.00 | 0.00 | 0.00 | 74 | 1010.6 |
| 20260505010843 | 87 | 40 | 5.2 | 7.0 | 0.00 | 0.00 | 0.00 | 74 | 1010.8 |
| 20260505010338 | 88 | 54 | 7.0 | 8.7 | 0.00 | 0.00 | 0.00 | 73 | 1010.8 |
| 20260505005835 | 87 | 22 | 0.9 | 2.6 | 0.00 | 0.00 | 0.00 | 75 | 1010.9 |
| 20260505005332 | 87 | 47 | 2.6 | 6.1 | 0.00 | 0.00 | 0.00 | 76 | 1010.8 |
| 20260505004830 | 87 | 119 | 1.7 | 5.2 | 0.00 | 0.00 | 0.00 | 76 | 1010.7 |
| 20260505004326 | 87 | 1 | 7.0 | 8.7 | 0.00 | 0.00 | 0.00 | 76 | 1010.7 |
| 20260505003823 | 86 | 46 | 2.6 | 5.2 | 0.00 | 0.00 | 0.00 | 78 | 1010.8 |
| 20260505003320 | 85 | 25 | 3.5 | 5.2 | 0.00 | 0.00 | 0.00 | 79 | 1010.6 |
| 20260505002816 | 85 | 333 | 5.2 | 7.0 | 0.00 | 0.00 | 0.00 | 79 | 1010.5 |
| 20260505002314 | 85 | 359 | 3.5 | 3.5 | 0.00 | 0.00 | 0.00 | 80 | 1010.4 |
| 20260505001812 | 85 | 2 | 0.9 | 2.6 | 0.00 | 0.00 | 0.00 | 80 | 1010.3 |
| 20260505001308 | 85 | 51 | 1.7 | 3.5 | 0.00 | 0.00 | 0.00 | 81 | 1010.3 |
| 20260505000806 | 84 | 95 | 1.7 | 2.6 | 0.00 | 0.00 | 0.00 | 81 | 1010.1 |
| 20260505000303 | 84 | 45 | 2.6 | 5.2 | 0.00 | 0.00 | 0.00 | 82 | 1010.2 |
| 20260504235800 | 84 | 34 | 1.7 | 2.6 | 0.00 | 0.00 | 0.00 | 82 | 1010.2 |
| 20260504235256 | 84 | 21 | 0.9 | 5.2 | 0.00 | 0.00 | 0.00 | 82 | 1009.9 |
| 20260504234753 | 84 | 64 | 2.6 | 3.5 | 0.00 | 0.00 | 0.00 | 83 | 1009.8 |
| 20260504234251 | 84 | 131 | 2.6 | 3.5 | 0.00 | 0.00 | 0.00 | 83 | 1010.0 |
| 20260504233747 | 84 | 37 | 2.6 | 3.5 | 0.00 | 0.00 | 0.00 | 83 | 1009.6 |
| 20260504233243 | 83 | 42 | 1.7 | 7.8 | 0.00 | 0.00 | 0.00 | 84 | 1009.7 |
| 20260504232740 | 83 | 36 | 4.3 | 7.0 | 0.00 | 0.00 | 0.00 | 84 | 1009.6 |
| 20260504232237 | 83 | 26 | 3.5 | 5.2 | 0.00 | 0.00 | 0.00 | 85 | 1009.9 |
| 20260504231734 | 83 | 354 | 2.6 | 7.0 | 0.00 | 0.00 | 0.00 | 85 | 1009.7 |
| 20260504231230 | 83 | 56 | 5.2 | 6.1 | 0.00 | 0.00 | 0.00 | 85 | 1009.7 |
| 20260504230726 | 83 | 56 | 4.3 | 5.2 | 0.00 | 0.00 | 0.00 | 85 | 1009.6 |
| 20260504230225 | 83 | 26 | 3.5 | 5.2 | 0.00 | 0.00 | 0.00 | 85 | 1009.6 |
| 20260504225723 | 83 | 43 | 0.0 | 1.7 | 0.00 | 0.00 | 0.00 | 85 | 1009.6 |
| 20260504225219 | 83 | 32 | 1.7 | 2.6 | 0.00 | 0.00 | 0.00 | 85 | 1009.6 |
| 20260504224716 | 83 | 83 | 2.6 | 5.2 | 0.00 | 0.00 | 0.00 | 85 | 1009.5 |
| 20260504224214 | 83 | 58 | 1.7 | 3.5 | 0.00 | 0.00 | 0.00 | 85 | 1009.5 |
| 20260504223710 | 83 | 22 | 0.9 | 2.6 | 0.00 | 0.00 | 0.00 | 85 | 1009.5 |
| 20260504223205 | 83 | 44 | 2.6 | 3.5 | 0.00 | 0.00 | 0.00 | 84 | 1009.6 |
| 20260504222703 | 83 | 51 | 3.5 | 5.2 | 0.00 | 0.00 | 0.00 | 84 | 1009.4 |
| 20260504222159 | 83 | 55 | 2.6 | 2.6 | 0.00 | 0.00 | 0.00 | 84 | 1009.5 |
| 20260504221657 | 83 | 50 | 1.7 | 3.5 | 0.00 | 0.00 | 0.00 | 84 | 1009.5 |
| 20260504221154 | 83 | 34 | 3.5 | 5.2 | 0.00 | 0.00 | 0.00 | 83 | 1009.5 |
| 20260504220650 | 83 | 43 | 0.9 | 2.6 | 0.00 | 0.00 | 0.00 | 83 | 1009.5 |
| 20260504220148 | 83 | 46 | 1.7 | 3.5 | 0.00 | 0.00 | 0.00 | 83 | 1009.3 |
| 20260504215644 | 83 | 32 | 0.0 | 2.6 | 0.00 | 0.00 | 0.00 | 83 | 1009.4 |
| 20260504215142 | 83 | 56 | 1.7 | 5.2 | 0.00 | 0.00 | 0.00 | 83 | 1009.4 |
| 20260504214637 | 83 | 97 | 1.7 | 3.5 | 0.00 | 0.00 | 0.00 | 83 | 1009.2 |
| 20260504214134 | 83 | 130 | 2.6 | 5.2 | 0.00 | 0.00 | 0.00 | 83 | 1009.4 |
| 20260504213630 | 83 | 73 | 0.9 | 6.1 | 0.00 | 0.00 | 0.00 | 83 | 1009.3 |
| 20260504213127 | 83 | 45 | 2.6 | 5.2 | 0.00 | 0.00 | 0.00 | 83 | 1009.4 |
| 20260504212624 | 83 | 90 | 1.7 | 5.2 | 0.00 | 0.00 | 0.00 | 83 | 1009.5 |
| 20260504212120 | 83 | 100 | 1.7 | 3.5 | 0.00 | 0.00 | 0.00 | 83 | 1009.4 |
| 20260504211618 | 83 | 64 | 1.7 | 5.2 | 0.00 | 0.00 | 0.00 | 83 | 1009.4 |
| 20260504211114 | 83 | 55 | 2.6 | 5.2 | 0.00 | 0.00 | 0.00 | 83 | 1009.4 |
| 20260504210612 | 84 | 100 | 0.9 | 3.5 | 0.00 | 0.00 | 0.00 | 83 | 1009.4 |
| 20260504210108 | 84 | 47 | 0.9 | 3.5 | 0.00 | 0.00 | 0.00 | 83 | 1009.2 |
| 20260504205606 | 84 | 112 | 4.3 | 5.2 | 0.00 | 0.00 | 0.00 | 82 | 1009.4 |
| 20260504205103 | 84 | 126 | 1.7 | 5.2 | 0.00 | 0.00 | 0.00 | 83 | 1009.5 |
| 20260504204601 | 84 | 49 | 2.6 | 6.1 | 0.00 | 0.00 | 0.00 | 83 | 1009.4 |
| 20260504204100 | 84 | 160 | 4.3 | 6.1 | 0.00 | 0.00 | 0.00 | 83 | 1009.3 |
| 20260504203558 | 84 | 149 | 1.7 | 8.7 | 0.00 | 0.00 | 0.00 | 83 | 1009.3 |
| 20260504203055 | 84 | 52 | 0.9 | 3.5 | 0.00 | 0.00 | 0.00 | 83 | 1009.4 |
| 20260504202550 | 84 | 77 | 1.7 | 3.5 | 0.00 | 0.00 | 0.00 | 83 | 1009.4 |
| 20260504202048 | 84 | 28 | 0.9 | 2.6 | 0.00 | 0.00 | 0.00 | 83 | 1009.2 |
| 20260504201544 | 84 | 66 | 0.9 | 3.5 | 0.00 | 0.00 | 0.00 | 84 | 1009.4 |
| 20260504201043 | 84 | 28 | 1.7 | 5.2 | 0.00 | 0.00 | 0.00 | 84 | 1009.4 |
| 20260504200538 | 84 | 82 | 1.7 | 3.5 | 0.00 | 0.00 | 0.00 | 84 | 1009.3 |
| 20260504200036 | 84 | 87 | 0.9 | 3.5 | 0.00 | 0.00 | 0.00 | 84 | 1009.2 |
| 20260504195532 | 83 | 79 | 1.7 | 7.0 | 0.00 | 0.00 | 0.00 | 84 | 1009.2 |
| 20260504195028 | 83 | 67 | 1.7 | 7.8 | 0.00 | 0.00 | 0.00 | 84 | 1009.2 |
| 20260504194525 | 84 | 94 | 3.5 | 6.1 | 0.00 | 0.00 | 0.00 | 84 | 1009.1 |
| 20260504194020 | 84 | 93 | 7.8 | 8.7 | 0.00 | 0.00 | 0.00 | 84 | 1009.1 |
| 20260504193517 | 84 | 107 | 4.3 | 7.0 | 0.00 | 0.00 | 0.00 | 84 | 1009.3 |
| 20260504193017 | 84 | 143 | 1.7 | 7.0 | 0.00 | 0.00 | 0.00 | 84 | 1009.1 |
| 20260504192514 | 84 | 80 | 3.5 | 5.2 | 0.00 | 0.00 | 0.00 | 84 | 1009.0 |
| 20260504192012 | 84 | 54 | 6.1 | 7.0 | 0.00 | 0.00 | 0.00 | 84 | 1009.1 |
| 20260504191509 | 84 | 118 | 4.3 | 7.8 | 0.00 | 0.00 | 0.00 | 84 | 1008.9 |
| 20260504191005 | 84 | 90 | 2.6 | 7.0 | 0.00 | 0.00 | 0.00 | 84 | 1009.0 |
| 20260504190501 | 84 | 73 | 4.3 | 5.2 | 0.00 | 0.00 | 0.00 | 84 | 1009.0 |
| 20260504185957 | 84 | 67 | 7.8 | 8.7 | 0.00 | 0.00 | 0.00 | 84 | 1008.9 |
| 20260504185455 | 84 | 129 | 2.6 | 14.8 | 0.00 | 0.00 | 0.00 | 84 | 1009.0 |
| 20260504184951 | 84 | 60 | 4.3 | 6.1 | 0.00 | 0.00 | 0.00 | 84 | 1009.1 |
| 20260504184447 | 84 | 98 | 3.5 | 7.8 | 0.00 | 0.00 | 0.00 | 83 | 1009.1 |
| 20260504183942 | 84 | 53 | 0.9 | 9.6 | 0.00 | 0.00 | 0.00 | 83 | 1009.1 |
| 20260504183440 | 84 | 63 | 3.5 | 6.1 | 0.00 | 0.00 | 0.00 | 83 | 1009.2 |
| 20260504182938 | 84 | 86 | 5.2 | 9.6 | 0.00 | 0.00 | 0.00 | 83 | 1009.4 |
| 20260504182434 | 84 | 50 | 5.2 | 7.8 | 0.00 | 0.00 | 0.00 | 83 | 1009.4 |
| 20260504181932 | 84 | 101 | 8.7 | 12.2 | 0.00 | 0.00 | 0.00 | 83 | 1009.3 |
| 20260504181429 | 84 | 106 | 6.1 | 7.8 | 0.00 | 0.00 | 0.00 | 82 | 1009.2 |
| 20260504180927 | 84 | 68 | 3.5 | 7.8 | 0.00 | 0.00 | 0.00 | 82 | 1009.4 |
| 20260504180426 | 84 | 86 | 3.5 | 5.2 | 0.00 | 0.00 | 0.00 | 82 | 1009.7 |
| 20260504175924 | 84 | 112 | 0.9 | 5.2 | 0.00 | 0.00 | 0.00 | 82 | 1009.8 |
| 20260504175420 | 84 | 97 | 6.1 | 8.7 | 0.00 | 0.00 | 0.00 | 82 | 1009.8 |
| 20260504174918 | 84 | 99 | 3.5 | 8.7 | 0.00 | 0.00 | 0.00 | 82 | 1009.6 |
| 20260504174415 | 84 | 78 | 2.6 | 7.0 | 0.00 | 0.00 | 0.00 | 81 | 1009.7 |
| 20260504173913 | 85 | 55 | 2.6 | 7.8 | 0.00 | 0.00 | 0.00 | 81 | 1009.7 |
| 20260504173409 | 85 | 98 | 1.7 | 7.0 | 0.00 | 0.00 | 0.00 | 81 | 1009.8 |
| 20260504172907 | 85 | 113 | 3.5 | 5.2 | 0.00 | 0.00 | 0.00 | 81 | 1009.9 |
| 20260504172402 | 85 | 101 | 2.6 | 5.2 | 0.00 | 0.00 | 0.00 | 81 | 1009.9 |
| 20260504171859 | 85 | 98 | 5.2 | 7.0 | 0.00 | 0.00 | 0.00 | 81 | 1010.0 |
| 20260504171356 | 85 | 37 | 3.5 | 7.0 | 0.00 | 0.00 | 0.00 | 81 | 1009.9 |
| 20260504170853 | 85 | 93 | 5.2 | 8.7 | 0.00 | 0.00 | 0.00 | 81 | 1010.2 |
| 20260504170350 | 85 | 122 | 3.5 | 12.2 | 0.00 | 0.00 | 0.00 | 81 | 1010.4 |